Temp
17 16 16 17 17 17 17 17 18 18 18 18 18 17 17 18 18 18 17 18 17 17 16 16 16 15 15 15 15 15 15 15 16 16 15 15 15 15 16 16 16 16 16
17 17 17 17 17 17 18 17 17 17 17 17 17 17 17 17 17 17 17 17 17 16 15 16 15 15 15 15 15 16 16 15 15 15 15 15 15 16 15 14 15 16 16
17 16 16 17 17 17 17 17 17 17 17 17 17 17 17 17 17 17 17 17 16 15 15 15 16 16 15 15 15 16 15 15 15 15 15 16 16 15 14 14 15 16 16
16 16 16 17 17 17 17 17 17 17 17 17 17 17 17 17 17 16 16 16 15 15 15 15 16 16 16 15 15 15 14 14 14 14 15 15 15 15 15 15 16 16 16
16 16 17 17 17 17 17 17 17 17 16 16 16 16 17 17 17 16 16 16 16 15 15 16 16 16 16 16 15 15 14 14 14 14 14 14 15 15 15 16 16 16 16
16 17 17 16 16 16 17 17 17 17 16 16 16 16 16 16 16 16 15 15 15 15 15 16 16 16 16 16 15 14 14 14 15 14 14 15 15 16 16 16 16 15 15
16 15 17 16 16 16 16 16 17 17 16 16 16 16 16 16 16 16 16 15 15 16 16 16 16 16 16 16 15 14 14 15 15 15 15 14 15 15 15 15 15 15 15
15 15 16 16 16 16 16 16 16 16 17 16 16 16 16 16 16 16 16 16 15 16 16 16 16 16 16 16 15 15 14 15 15 15 15 15 15 15 15 15 15 15 15
16 15 15 16 16 16 16 16 16 16 16 16 16 16 16 16 16 16 16 15 15 15 16 16 16 16 16 16 16 15 15 15 15 15 15 15 15 15 15 15 15 15 15
16 16 15 15 16 16 16 15 15 16 16 16 16 16 16 16 16 16 16 16 15 15 15 16 16 16 16 16 16 16 15 15 15 15 15 15 15 15 15 15 15 15 15
16 17 17 16 15 16 16 16 15 15 15 15 16 16 16 16 16 16 16 16 16 15 15 15 16 16 16 16 16 16 15 15 15 15 15 15 15 15 15 15 15 15 15
16 16 16 16 16 16 15 15 16 15 15 15 15 15 16 16 16 16 16 16 16 16 15 15 15 16 16 16 16 15 15 15 15 15 15 15 15 15 15 15 15 15 15
14 15 15 16 16 16 16 15 15 15 15 15 15 15 15 15 15 15 16 15 15 15 15 15 15 16 16 16 16 16 15 15 15 15 15 15 15 15 15 15 15 15 15
13 13 14 14 15 16 16 16 15 15 15 16 15 15 15 15 15 15 15 15 15 15 15 15 15 15 16 16 16 15 15 15 15 15 15 15 14 15 15 15 15 15 15
12 12 12 12 13 14 15 15 16 15 15 15 15 15 15 15 15 15 15 15 15 15 15 15 15 15 15 16 16 16 15 15 14 14 15 15 14 15 15 15 15 15 15
12 12 12 12 12 11 13 14 15 15 15 15 14 14 14 14 15 15 15 15 15 15 15 15 15 15 15 15 15 16 15 15 15 14 14 14 14 14 14 15 15 15 15
11 12 12 12 12 12 12 12 14 15 15 15 15 14 14 14 14 15 15 15 16 15 15 15 15 14 14 14 14 15 15 15 15 14 14 14 14 14 14 14 14 15 15
11 11 12 11 12 12 12 12 12 12 14 14 15 15 14 14 14 14 14 15 15 16 15 15 15 15 14 14 14 15 15 15 15 15 14 14 14 14 14 14 14 14 15
11 10 11 11 11 11 11 11 12 11 11 13 13 14 15 14 14 14 14 14 15 15 15 15 15 15 15 15 14 14 14 14 14 14 14 14 14 14 14 14 14 14 14
8 8 8 9 10 10 10 11 11 11 12 12 13 13 14 14 14 13 13 14 14 14 14 14 14 14 15 15 14 14 14 14 15 14 14 14 14 14 14 14 14 14 14
5 5 7 7 9 8 8 9 9 9 10 10 11 12 12 13 14 13 13 13 13 14 14 14 14 14 14 14 14 13 14 14 13 14 14 13 14 14 13 13 14 14 14
3 2 4 6 6 6 6 6 7 8 9 9 10 10 11 12 13 13 13 13 13 13 13 14 14 14 14 14 14 13 12 13 13 14 14 14 14 14 14 14 14 14 14
4 3 4 6 6 5 4 5 6 7 8 8 9 9 10 11 11 12 12 12 12 12 13 13 13 13 14 14 14 13 12 12 13 13 13 14 13 14 14 13 13 14 14
4 4 4 6 6 5 5 5 7 7 8 8 8 9 9 10 10 10 10 11 11 11 12 12 12 12 12 13 14 13 13 13 13 13 13 14 13 14 14 14 14 14 14
5 4 5 6 7 6 5 6 7 8 8 8 8 9 9 9 10 9 10 10 10 11 11 12 12 12 13 13 13 12 13 13 12 13 13 13 13 13 13 13 14 14 14
6 6 5 7 7 6 7 7 7 7 7 8 8 8 8 9 9 9 9 9 10 10 10 11 13 12 12 13 12 12 12 12 12 12 11 11 12 13 12 13 13 13 14
Height
1536 1536 1536 1536 1536 1536 1537 1537 1538 1539 1539 1540 1540 1541 1541 1541 1541 1540 1540 1540 1540 1540 1540 1540 1541 1542 1543 1543 1543 1544 1544 1544 1543 1543 1544 1544 1545 1545 1545 1545 1545 1545 1545
1535 1536 1536 1536 1536 1537 1537 1539 1539 1539 1540 1540 1541 1541 1541 1541 1541 1541 1540 1540 1541 1541 1541 1542 1543 1543 1543 1544 1545 1545 1545 1545 1545 1545 1545 1545 1545 1546 1546 1546 1546 1546 1546
1535 1535 1535 1535 1536 1536 1537 1538 1539 1540 1540 1541 1541 1541 1542 1542 1542 1541 1541 1541 1541 1542 1543 1543 1544 1544 1545 1545 1545 1545 1546 1545 1545 1546 1546 1547 1547 1547 1547 1547 1547 1547 1546
1535 1534 1534 1535 1535 1536 1538 1539 1539 1539 1540 1541 1541 1542 1542 1542 1542 1542 1542 1542 1543 1543 1544 1544 1544 1545 1545 1546 1546 1546 1546 1546 1547 1547 1547 1548 1548 1548 1548 1548 1548 1547 1547
1534 1534 1535 1534 1535 1536 1537 1538 1539 1540 1541 1541 1541 1542 1542 1542 1542 1542 1543 1543 1543 1544 1544 1544 1544 1545 1545 1546 1546 1546 1547 1547 1547 1548 1549 1549 1549 1549 1549 1548 1548 1548 1548
1534 1534 1534 1534 1534 1535 1536 1537 1538 1539 1540 1541 1542 1542 1542 1542 1542 1542 1543 1543 1543 1544 1544 1544 1544 1545 1545 1546 1547 1547 1547 1547 1548 1549 1549 1549 1549 1550 1549 1549 1549 1548 1548
1534 1534 1534 1534 1535 1534 1535 1536 1537 1538 1539 1540 1541 1541 1541 1542 1542 1542 1542 1543 1543 1543 1544 1544 1544 1545 1546 1546 1547 1548 1547 1547 1548 1548 1549 1550 1550 1550 1550 1550 1549 1549 1549
1534 1534 1534 1534 1534 1534 1534 1535 1536 1537 1537 1538 1539 1539 1540 1540 1541 1541 1541 1542 1542 1542 1543 1543 1544 1545 1545 1546 1547 1547 1548 1547 1548 1548 1549 1549 1549 1549 1550 1550 1550 1549 1549
1533 1533 1533 1533 1533 1532 1533 1533 1534 1535 1536 1537 1537 1538 1538 1539 1539 1540 1540 1541 1541 1542 1542 1543 1544 1544 1545 1546 1546 1547 1547 1547 1547 1548 1548 1548 1549 1549 1549 1549 1549 1549 1549
1533 1532 1532 1532 1532 1532 1531 1532 1532 1533 1534 1535 1535 1536 1536 1536 1537 1538 1538 1539 1540 1541 1541 1542 1543 1544 1544 1545 1545 1546 1546 1546 1546 1546 1547 1547 1547 1548 1548 1548 1548 1548 1548
1531 1530 1530 1530 1530 1530 1530 1530 1530 1530 1531 1532 1533 1533 1533 1534 1535 1535 1536 1537 1537 1538 1539 1540 1541 1542 1543 1543 1544 1544 1544 1545 1544 1545 1545 1545 1546 1546 1546 1547 1547 1547 1547
1527 1527 1527 1527 1527 1527 1527 1527 1528 1528 1528 1529 1530 1530 1531 1532 1532 1533 1533 1535 1535 1536 1536 1538 1538 1540 1540 1541 1542 1543 1543 1543 1543 1543 1543 1544 1544 1545 1545 1545 1545 1545 1545
1524 1523 1523 1523 1523 1523 1523 1523 1524 1524 1525 1525 1526 1527 1528 1529 1529 1530 1530 1531 1531 1532 1533 1534 1535 1536 1537 1538 1539 1540 1541 1541 1541 1541 1542 1542 1542 1543 1543 1543 1543 1543 1543
1522 1521 1520 1519 1518 1518 1518 1519 1519 1519 1520 1521 1522 1523 1523 1524 1525 1526 1526 1527 1528 1528 1529 1530 1531 1533 1534 1535 1536 1537 1538 1538 1538 1539 1539 1540 1540 1540 1541 1541 1541 1541 1541
1516 1515 1515 1514 1514 1514 1513 1513 1513 1514 1514 1515 1517 1518 1519 1519 1520 1521 1522 1523 1524 1524 1525 1526 1527 1529 1530 1531 1532 1533 1534 1534 1535 1536 1536 1537 1537 1538 1538 1538 1538 1538 1538
1514 1513 1512 1510 1509 1508 1507 1507 1508 1508 1508 1509 1510 1512 1513 1514 1515 1516 1517 1518 1519 1520 1521 1522 1524 1525 1526 1527 1528 1528 1530 1530 1531 1532 1533 1534 1534 1535 1535 1535 1535 1535 1536
1512 1509 1508 1506 1505 1503 1501 1501 1501 1501 1501 1501 1503 1505 1506 1507 1508 1509 1511 1512 1514 1515 1516 1518 1519 1520 1521 1522 1522 1523 1524 1526 1526 1527 1528 1529 1531 1532 1532 1532 1533 1533 1532
1507 1503 1501 1500 1497 1496 1495 1493 1492 1492 1492 1493 1495 1497 1498 1500 1501 1502 1503 1506 1508 1509 1510 1511 1513 1514 1515 1516 1517 1517 1517 1519 1521 1521 1523 1524 1526 1527 1527 1528 1529 1529 1529
1500 1496 1493 1491 1489 1488 1486 1485 1484 1483 1483 1484 1485 1486 1489 1491 1494 1495 1496 1498 1501 1502 1503 1505 1506 1507 1508 1509 1510 1512 1512 1512 1514 1516 1517 1518 1519 1521 1522 1523 1523 1524 1525
1493 1489 1485 1482 1479 1477 1476 1476 1475 1475 1474 1476 1477 1478 1480 1482 1485 1487 1489 1491 1494 1495 1496 1498 1500 1500 1501 1502 1504 1505 1506 1507 1508 1508 1509 1512 1513 1514 1515 1516 1518 1518 1519
1487 1482 1478 1474 1473 1470 1466 1466 1467 1466 1467 1467 1468 1471 1473 1475 1477 1480 1481 1483 1486 1487 1488 1489 1491 1493 1494 1495 1497 1498 1499 1500 1501 1501 1502 1504 1506 1507 1508 1509 1510 1511 1512
1485 1478 1473 1470 1466 1464 1460 1457 1458 1460 1460 1460 1462 1464 1467 1468 1469 1472 1474 1475 1477 1479 1480 1481 1482 1483 1483 1486 1488 1491 1490 1494 1493 1492 1493 1495 1497 1500 1501 1502 1503 1504 1505
1481 1474 1468 1464 1460 1457 1454 1451 1453 1454 1455 1455 1457 1459 1461 1463 1464 1465 1467 1468 1469 1471 1471 1471 1472 1467 1470 1473 1477 1481 1483 1480 1485 1485 1484 1488 1490 1492 1493 1494 1494 1496 1498
1477 1471 1465 1459 1455 1452 1449 1447 1450 1451 1451 1452 1454 1455 1456 1457 1458 1460 1461 1462 1462 1463 1463 1464 1463 1462 1449 1462 1469 1472 1474 1475 1475 1477 1477 1479 1481 1483 1485 1486 1487 1488 1490
1475 1468 1462 1456 1452 1449 1446 1447 1449 1449 1449 1449 1450 1450 1451 1452 1453 1454 1456 1456 1456 1455 1455 1455 1456 1455 1455 1458 1459 1464 1466 1467 1466 1470 1471 1473 1473 1475 1477 1482 1482 1482 1484
1473 1466 1461 1455 1450 1448 1448 1448 1448 1447 1447 1447 1446 1446 1447 1447 1447 1449 1449 1449 1448 1448 1448 1447 1449 1450 1451 1452 1453 1454 1456 1458 1458 1460 1462 1465 1466 1466 1470 1473 1473 1473 1475
Wind_Speed
3 0 1 6 9 9 8 8 9 8 8 7 7 7 7 7 6 6 5 6 9 10 11 11 14 11 9 9 8 8 7 9 10 13 14 14 13 10 8 9 9 11 11
4 2 2 8 9 10 9 9 8 8 7 6 6 5 5 5 6 6 6 8 11 13 12 10 12 11 10 10 10 8 8 10 11 11 12 10 9 8 10 9 10 9 9
3 4 5 8 9 11 10 9 9 8 6 5 5 5 4 4 4 6 8 11 12 13 11 7 7 10 10 10 9 9 12 12 13 11 8 7 8 9 10 9 5 6 7
2 1 5 8 9 11 10 10 9 9 7 6 5 6 4 4 5 5 7 9 11 10 10 5 4 8 9 9 10 13 13 12 13 12 10 9 10 9 6 2 3 6 6
3 2 5 8 8 10 12 9 9 9 8 7 6 6 5 5 5 6 6 8 9 9 7 5 5 8 9 10 14 16 14 11 7 8 8 6 4 2 3 3 4 4 5
4 3 5 8 9 10 11 11 10 10 9 8 8 6 5 5 6 8 9 7 9 9 8 6 6 8 10 12 16 16 14 11 10 8 6 2 2 2 3 2 3 3 4
2 1 3 6 8 10 11 12 12 11 10 10 10 8 7 6 7 9 10 10 8 8 8 7 7 9 11 12 16 15 12 10 8 8 6 3 3 3 3 2 2 2 3
1 5 3 6 7 9 11 12 13 13 12 12 12 11 10 9 9 10 13 12 11 8 8 8 9 10 11 12 14 15 13 10 8 8 6 6 5 4 3 2 1 1 2
2 2 6 5 8 8 12 13 13 14 14 14 14 13 12 12 11 12 14 13 14 12 9 10 10 11 11 12 14 15 15 12 10 9 8 6 6 5 5 3 2 1 1
7 5 4 7 8 11 11 15 15 15 15 16 16 16 16 15 13 14 15 16 14 16 12 10 12 13 12 12 13 14 16 14 12 10 8 7 6 6 6 5 4 3 3
11 10 11 8 10 13 12 14 17 18 18 19 19 19 19 18 16 16 16 17 17 17 17 13 13 15 14 14 14 15 16 16 14 11 10 8 8 8 8 7 7 6 6
18 14 14 14 12 12 16 17 17 18 19 21 22 22 22 20 19 18 17 19 19 19 20 18 15 17 17 16 15 16 16 18 16 13 12 11 10 9 9 9 9 9 8
17 16 15 15 17 18 17 19 20 22 21 20 22 24 24 23 23 22 21 21 22 22 23 24 21 20 21 19 18 17 16 19 18 16 14 12 12 11 11 11 11 11 11
17 17 17 16 17 18 21 22 22 24 23 24 24 25 27 27 27 26 25 24 25 26 26 26 25 23 22 22 21 20 20 20 21 19 17 15 13 13 13 12 12 12 13
15 15 15 17 19 20 21 23 26 26 27 28 26 26 26 29 30 29 29 28 28 26 25 28 28 27 25 24 24 24 22 22 23 22 20 18 16 15 14 15 14 14 14
17 20 20 20 18 21 24 24 25 28 30 30 32 32 29 30 29 28 30 31 31 30 27 26 27 29 29 27 26 27 27 25 24 25 23 21 21 19 18 17 17 16 15
15 21 25 26 26 26 26 26 29 28 29 33 34 33 35 32 34 31 31 32 32 30 31 29 28 29 31 30 29 28 29 29 27 26 26 23 25 24 21 19 18 18 18
24 27 29 30 32 32 31 32 31 32 32 32 35 37 35 38 35 35 36 36 34 33 33 32 30 29 32 33 32 29 28 32 31 29 28 27 26 26 25 23 22 21 20
32 35 37 37 38 37 36 35 35 34 35 34 33 35 40 38 39 34 39 38 38 37 38 36 34 33 33 35 35 31 29 29 32 32 32 33 32 30 29 27 26 24 23
27 28 29 31 35 38 40 39 37 37 36 35 35 35 36 41 38 42 37 40 39 42 41 41 40 40 38 35 34 34 32 30 30 30 33 33 32 33 33 31 29 28 25
29 30 28 28 26 29 34 38 40 38 35 35 34 31 33 35 40 39 41 41 40 44 45 45 46 44 42 39 35 34 36 35 34 33 34 32 33 36 35 35 35 32 30
35 32 29 26 26 29 31 32 33 31 30 30 30 29 28 29 33 37 38 38 43 45 45 49 46 48 46 42 41 33 28 38 40 39 38 37 38 36 37 37 37 36 35
38 31 26 25 25 25 28 26 25 23 26 27 26 25 27 26 28 30 34 37 37 40 45 48 49 48 49 45 43 37 14 19 27 37 45 43 39 40 40 42 42 41 40
34 28 26 26 24 21 21 15 16 18 21 23 25 24 26 25 23 25 28 29 33 36 39 40 46 42 44 40 43 43 42 25 14 14 21 28 27 25 26 24 26 28 30
30 26 26 24 19 16 12 9 14 18 19 19 23 24 24 25 25 24 28 30 30 34 39 41 41 44 42 46 46 39 43 45 40 32 21 25 25 24 23 25 23 26 27
29 26 25 23 20 15 10 9 14 16 17 19 18 21 23 23 24 26 27 28 29 32 36 40 43 41 41 46 48 46 45 37 35 36 31 33 34 30 31 35 36 37 35
Wind_Direction
63 274 187 197 195 184 174 166 156 146 141 137 133 130 125 121 118 113 117 129 129 121 112 114 123 122 138 143 134 116 113 106 115 126 125 123 119 112 92 92 88 81 69
45 275 221 210 207 197 189 178 172 160 152 146 145 138 126 121 116 109 107 128 128 121 111 111 140 134 134 144 123 124 130 106 110 127 135 134 122 110 95 97 96 70 59
299 273 208 213 216 202 200 196 189 179 166 162 167 160 146 133 124 118 116 129 134 130 147 136 150 167 142 147 135 136 128 122 114 119 133 134 117 106 118 117 71 45 55
351 177 173 206 210 212 205 202 201 196 190 187 185 170 173 155 146 139 131 138 142 142 164 184 174 175 166 162 156 142 137 125 121 121 125 127 121 122 121 107 49 52 56
135 164 207 199 216 217 211 212 212 212 210 201 192 207 185 175 167 162 158 154 151 155 177 181 162 157 159 164 161 151 143 144 144 127 129 136 153 150 121 98 78 65 61
132 169 206 205 208 216 218 219 218 216 217 217 208 211 246 187 187 184 191 175 173 177 192 180 163 157 155 159 162 161 162 161 157 163 156 147 164 166 132 111 86 71 69
167 156 233 219 227 215 217 222 223 220 214 217 217 215 226 227 206 208 203 199 191 197 204 200 179 166 162 163 169 168 173 182 188 185 189 224 212 184 166 152 118 89 86
217 194 227 263 237 234 225 225 228 228 225 220 219 221 227 225 224 221 213 210 208 209 211 210 197 183 177 175 179 184 190 202 211 211 208 216 202 200 198 194 168 105 102
343 259 222 233 252 252 231 228 228 231 233 233 229 228 232 232 231 225 221 216 218 219 218 214 209 199 193 190 190 193 200 210 213 208 201 207 212 212 219 223 225 212 171
287 290 267 240 241 256 253 229 232 236 235 238 238 236 235 235 235 231 221 219 223 222 225 227 219 214 209 205 202 201 207 211 217 215 210 208 209 222 230 235 237 235 226
288 275 270 261 255 252 251 248 238 236 240 240 242 240 241 238 236 234 231 227 224 224 225 229 228 223 221 218 213 208 209 212 219 221 218 213 227 235 235 242 244 243 242
302 287 270 262 253 247 253 252 251 248 240 244 247 246 243 241 240 239 236 233 231 229 227 229 230 228 226 223 220 215 213 214 218 225 225 222 233 242 243 246 250 251 248
311 309 298 278 262 254 246 245 247 252 250 246 246 247 249 247 243 241 238 232 229 229 230 228 230 229 228 227 225 223 218 219 222 229 230 230 239 248 248 250 253 253 253
317 317 309 297 279 264 256 249 245 247 248 247 248 247 247 247 246 243 242 236 233 233 234 233 232 234 234 231 230 227 224 223 226 234 238 238 246 250 254 252 253 253 255
291 295 302 301 293 282 269 256 249 247 248 249 248 249 251 248 247 248 245 239 236 235 236 237 236 237 237 237 234 233 229 226 226 232 239 242 242 247 252 256 252 252 254
291 293 293 289 286 289 283 270 258 250 245 245 248 246 247 248 246 246 246 242 236 238 238 239 244 242 241 240 240 238 235 233 229 232 242 246 249 251 255 255 256 255 255
288 289 290 290 287 284 278 277 269 259 253 248 244 245 245 248 244 243 244 244 241 245 243 242 248 246 243 241 243 243 241 237 234 232 239 246 249 252 253 257 259 259 258
283 280 278 277 278 278 276 276 270 267 260 254 249 243 242 242 247 245 243 244 244 247 247 241 245 244 243 241 240 240 240 239 240 238 243 245 248 251 254 257 261 261 259
289 288 284 279 277 274 273 272 270 266 265 259 252 248 242 240 240 246 248 243 246 246 248 245 243 245 243 242 239 240 242 241 243 243 244 246 249 252 255 258 261 261 261
308 300 294 288 283 278 269 267 266 267 263 262 258 253 249 242 240 242 247 247 245 246 249 247 248 246 244 244 242 242 243 241 248 246 245 245 250 251 253 257 258 259 258
330 321 312 307 297 293 284 268 263 266 267 263 260 259 254 251 246 243 244 244 248 247 248 249 249 247 241 240 240 243 248 248 247 247 245 247 254 252 252 255 256 257 258
338 328 321 317 314 308 293 277 260 266 267 277 265 262 260 257 253 249 248 251 248 251 252 250 249 245 241 238 232 231 238 242 245 244 244 248 256 255 255 258 257 257 258
342 337 329 325 323 312 307 282 260 270 265 273 265 267 266 268 259 256 255 256 258 255 255 257 255 242 242 238 234 229 224 228 243 248 248 250 254 259 262 262 259 259 260
346 342 340 338 331 320 311 278 262 284 275 278 270 266 270 270 265 265 267 267 266 263 259 260 262 263 251 245 245 240 235 240 225 238 243 243 246 252 256 257 257 257 259
352 350 347 346 343 336 331 278 288 279 281 280 274 269 268 267 263 266 268 273 273 267 264 263 265 264 264 252 246 243 242 243 238 240 244 246 241 246 257 266 265 266 265
3 355 353 354 355 351 341 312 300 293 289 281 278 275 279 276 265 269 273 274 274 271 263 261 259 262 262 259 252 247 245 233 235 237 244 248 254 261 265 264 268 269 269